Location: Dos Palmas
(32.4468°N, 116.8732°W)
Time: 05:42:30
(UTC+00:00)

AQUA - Pass Details

Date: 20 June 2021
Orbit: 701 x 704 km, 98.2° (Epoch: 29 July)

Event Time Altitude Azimuth Distance (km) Brightness Sun altitude
Rises 10:02:53 0° 4° (N) 3,095 8.1 -25.6°
Reaches altitude 10° 10:05:13 10° 359° (N) 2,173 7.0 -25.4°
Enters shadow 10:09:30 45° 297° (WNW) 953 4.3 -24.8°
